Location: NJAA Observatory
(40.6819°N, 74.8979°W)
Time: 20:46:08
(UTC-04:00)

Landsat 5 - Visible Passes

Search period start: 24 April 2014 00:00
Search period end: 04 May 2014 00:00
Orbit: 536 x 669 km, 98.1° (Epoch: 24 April)

Date Brightness Start Highest point End Pass type
(mag) Time Alt. Az. Time Alt. Az. Time Alt. Az.
24 Apr 5.3 22:19:21 21° NE 22:19:21 21° NE 22:21:26 10° NNE visible
24 Apr 6.2 23:56:09 15° NW 23:56:09 15° NW 23:57:04 10° NW visible
25 Apr 5.0 22:31:16 26° NNE 22:31:16 26° NNE 22:33:35 10° N visible
26 Apr 6.4 00:08:04 12° NW 00:08:04 12° NW 00:08:31 10° NW visible
26 Apr 4.9 22:43:11 31° NNE 22:43:11 31° NNE 22:45:38 10° N visible
27 Apr 4.8 22:55:06 35° N 22:55:06 35° N 22:57:38 10° N visible
28 Apr 4.9 23:07:00 36° NNW 23:07:00 36° NNW 23:09:33 10° NNW visible
29 Apr 5.8 21:42:07 11° ENE 21:42:08 11° ENE 21:43:07 10° NE visible
29 Apr 5.0 23:18:54 34° NNW 23:18:54 34° NNW 23:21:24 10° NNW visible
30 Apr 5.6 21:54:01 14° ENE 21:54:01 14° ENE 21:56:07 10° NNE visible
30 Apr 5.2 23:30:49 30° NW 23:30:49 30° NW 23:33:12 10° NNW visible
01 May 5.3 22:05:55 19° ENE 22:05:55 19° ENE 22:08:33 10° NNE visible
01 May 5.5 23:42:43 25° NW 23:42:43 25° NW 23:44:55 10° NNW visible
02 May 5.0 22:17:49 24° NE 22:17:49 24° NE 22:20:48 10° NNE visible
02 May 5.8 23:54:37 20° WNW 23:54:37 20° WNW 23:56:32 10° NW visible
03 May 4.7 22:29:43 31° NE 22:29:43 31° NE 22:32:55 10° N visible
